Flag for Germany Weather past 2 weeks in Ludwigsfelde, Brandenburg, Germany

Now
68 °F

Partly sunny.


Feels Like: 68 °F
Forecast: 48 / 72 °F
Wind: 5 mph from West

Location: Potsdam

Current Time: Aug 27, 2014 at 6:03:15 PM

Latest Report: Aug 27, 2014 at 5:00 PM


Visibility: 28 mi

Pressure: 29.97 "Hg

Humidity: 45%

Dew point: 46 °F

Location of LudwigsfeldeLocation

Historic Weather in Ludwigsfelde — Graph

°F

Ludwigsfelde temperature yesterday

Maximum temperature yesterday: 65 °F (at 5:00 PM)
Minimum temperature yesterday: 51 °F (at 7:00 AM)
Average temperature yesterday: 56 °F

Past Weeks' High & Low Weather Summary

 TemperatureHumidityPressure
High75 °F (Aug 13, 4:00 PM)99% (Aug 14, 5:00 AM)30.04 "Hg (Aug 14, 5:00 AM)
Low46 °F (Aug 25, 7:00 AM)39% (Aug 22, 4:00 PM)29.61 "Hg (Aug 18, 3:00 PM)
Average59 °F75%29.86 "Hg
* Reported Aug 12 4:00 PM — Aug 27 4:00 PM, Ludwigsfelde, Weather by CustomWeather, © 2014

Note: Actual official high and low records may vary slightly from our data, if they occured in-between our weather recording intervals... More about our weather records

Advertising

Ludwigsfelde weather history for previous 24 hours

 ConditionsComfort  
Time TempWeatherWind HumidityBarometerVisibility
4:00 PM
Aug 27
66 °FPartly sunny.3 mph62%29.98 "Hg28 mi
3:00 PM65 °FOvercast.7 mph58%29.97 "Hg22 mi
2:00 PM69 °FScattered clouds.5 mph48%29.96 "Hg25 mi
1:00 PM67 °FScattered clouds.5 mph53%29.96 "Hg25 mi
12:00 PM65 °FScattered clouds.5 mph60%29.96 "Hg25 mi
11:00 AM63 °FPassing clouds.2 mph71%29.94 "Hg25 mi
10:00 AM59 °FPassing clouds.2 mph81%29.93 "Hg22 mi
9:00 AM53 °FPassing clouds.2 mph94%29.93 "Hg22 mi
8:00 AM49 °FPassing clouds.3 mph98%29.91 "Hg19 mi
7:00 AM47 °FPassing clouds.3 mph98%29.88 "Hg19 mi
6:00 AM47 °FPassing clouds.3 mph98%29.86 "Hg19 mi
5:00 AM48 °FPassing clouds.3 mph97%29.86 "Hg22 mi
4:00 AM48 °FPassing clouds.3 mph98%29.85 "Hg22 mi
3:00 AM49 °FPassing clouds.2 mph98%29.83 "Hg22 mi
2:00 AM51 °FPassing clouds.3 mph98%29.83 "Hg22 mi
1:00 AM52 °FPassing clouds.2 mph97%29.83 "Hg22 mi
12:00 AM52 °FPassing clouds.2 mph96%29.81 "Hg22 mi
11:00 PM
Aug 26
53 °FPassing clouds.3 mph94%29.80 "Hg25 mi
10:00 PM54 °FPassing clouds.3 mph92%29.80 "Hg28 mi
9:00 PM56 °FPassing clouds.3 mph87%29.78 "Hg28 mi
8:00 PM59 °FOvercast.2 mph80%29.77 "Hg28 mi
7:00 PM62 °FOvercast.2 mph72%29.76 "Hg28 mi
6:00 PM63 °FOvercast.2 mph60%29.75 "Hg25 mi
Weather by CustomWeather, © 2014

See weather overviewHow to use our weather pages